[[{"header":{"parameterUnit":"m.s-1","parameterCategory":1,"la1":30.2991,"la2":30.254,"lo1":-89.0895,"lo2":-89.0444,"dy":0.0017,"dx":0.0017,"nx":28,"ny":28,"refTime":"2025-09-02T03:00:00:Z","depth":0,"parameterNumber":2,"parameterNumberName":"U-component_of_WINDS"},"data":[0,0,0,0,0,0,0,0,0,0,0,0,0,0,0,0,0,0,0,0,0,0,0,0,0,0,0,0,0,0,0,0,0,0,0,0,0,0,0,0,0,0,0,0,0,0,0,0,0,0,0,0,0,0,0,0,0,0,-0.5002,-0.5002,0,-0.4987,-0.4987,-0.4987,-0.4925,-0.4924,-0.4922,-0.4921,-0.4909,-0.491,-0.4911,0,0,0,0,0,0,0,0,0,0,0,0,0,-0.4978,-0.4978,-0.5002,-0.5002,-0.5001,-0.4987,-0.4987,-0.4987,-0.4926,-0.4924,-0.4922,-0.492,-0.4908,-0.491,-0.4911,0,0,0,0,0,0,0,0,0,0,0,0,0,-0.4978,-0.4979,-0.5002,-0.4969,-0.4966,-0.4988,-0.4987,-0.4987,-0.4926,-0.4924,-0.4922,-0.492,-0.4908,-0.4909,-0.4911,-0.4964,0,0,-0.4916,-0.4916,0,0,0,0,0,0,0,0,-0.4978,-0.4979,-0.4974,-0.4971,-0.4968,-0.4956,-0.4974,-0.4979,-0.4926,-0.4941,-0.4921,-0.4918,-0.4926,-0.4926,-0.4928,-0.4963,-0.4963,-0.4916,-0.4917,-0.4917,-0.4918,0,0,0,0,0,0,0,-0.4978,-0.498,-0.4996,-0.4974,-0.497,-0.4956,-0.4953,-0.4975,-0.4946,-0.494,-0.4935,-0.4934,-0.4924,-0.4927,-0.4928,-0.4962,-0.4916,-0.4917,-0.4918,-0.4919,-0.504,-0.5042,0,0,0,0,0,0,-0.4983,-0.498,-0.4997,-0.4996,-0.4968,-0.4958,-0.4955,-0.4962,-0.4946,-0.4941,-0.4936,-0.4931,-0.4925,-0.4926,-0.4927,-0.4988,-0.4917,-0.4919,-0.492,-0.5038,-0.504,-0.5043,0,0,0,0,0,0,-0.4982,-0.4985,-0.4997,-0.4987,-0.4987,-0.496,-0.4969,-0.4963,-0.4965,-0.4943,-0.4938,-0.4944,-0.4924,-0.4925,-0.4955,-0.4986,-0.4919,-0.4921,-0.5035,-0.5039,-0.5042,-0.511,0,0,0,0,0,0,-0.4982,-0.4985,-0.5004,-0.4987,-0.4988,-0.5025,-0.4971,-0.4964,-0.4968,-0.4962,-0.4949,-0.4945,-0.4922,-0.4953,-0.4956,-0.4987,-0.4922,-0.5032,-0.5037,-0.5041,-0.5105,-0.5115,-0.5124,0,0,0,0,0,-0.4981,-0.5025,-0.5006,-0.5008,-0.5011,-0.5027,-0.5027,-0.5,-0.4971,-0.499,-0.4976,-0.4945,-0.4982,-0.4957,-0.496,-0.4992,-0.503,-0.5035,-0.504,-0.51,-0.5113,-0.5124,0,0,0,0,0,0,-0.5047,-0.5022,-0.5001,-0.504,-0.5036,-0.5017,-0.504,-0.5014,-0.5019,-0.5013,-0.4979,-0.4977,-0.5012,-0.5005,-0.4976,-0.5042,-0.5001,-0.5007,-0.5045,-0.5057,-0.5067,-0.5068,-0.4923,0,0,0,0,0,-0.5066,-0.508,-0.5057,-0.5094,-0.5093,-0.5067,-0.5073,-0.5052,-0.5047,-0.5045,-0.5033,-0.503,-0.5041,-0.5049,-0.5057,-0.5103,-0.51,-0.5127,-0.5137,-0.5145,-0.5151,-0.5174,-0.5186,-0.506,-0.506,-0.506,0,0,-0.5105,-0.5093,-0.5105,-0.5107,-0.5102,-0.5118,-0.5066,-0.5086,-0.5097,-0.5048,-0.5076,-0.5067,-0.5061,-0.5099,-0.5116,-0.5095,-0.5185,-0.5151,-0.5158,-0.5159,-0.5181,-0.5193,-0.5204,-0.5064,-0.5063,-0.5062,0,0,-0.5185,-0.5178,-0.5207,-0.5203,-0.5195,-0.5177,-0.5184,-0.5169,-0.5161,-0.5188,-0.5151,-0.5165,-0.5184,-0.5182,-0.5183,-0.5262,-0.5234,-0.5266,-0.5317,-0.5341,-0.535,-0.5359,-0.5388,-0.5398,-0.5271,-0.5272,-0.5272,0,-0.5236,-0.5258,-0.5226,-0.5247,-0.525,-0.5205,-0.5235,-0.5233,-0.5229,-0.5231,-0.5208,-0.5231,-0.5224,-0.5261,-0.528,-0.5282,-0.529,-0.5267,-0.5351,-0.536,-0.5367,-0.5394,-0.5405,-0.5275,-0.5275,-0.5275,-0.5274,0,-0.532,-0.5336,-0.5361,-0.5357,-0.5362,-0.5388,-0.536,-0.537,-0.5348,-0.5333,-0.5361,-0.5351,-0.5357,-0.5364,-0.5344,-0.5399,-0.5386,-0.5357,-0.5315,-0.5384,-0.5408,-0.5418,-0.5281,-0.528,-0.5278,-0.5278,0,0,-0.5442,-0.5419,-0.5429,-0.5427,-0.5415,-0.5426,-0.545,-0.5455,-0.5464,-0.5462,-0.5482,-0.5499,-0.5472,-0.5474,-0.5453,-0.5473,-0.5537,-0.5442,-0.5442,-0.546,-0.5597,-0.5619,-0.5631,-0.5518,-0.552,-0.5521,-0.5597,0,-0.5518,-0.5557,-0.5529,-0.5573,-0.5587,-0.5545,-0.5565,-0.5561,-0.5547,-0.5558,-0.5543,-0.5556,-0.552,-0.5521,-0.5539,-0.5525,-0.5564,-0.5519,-0.5536,-0.5537,-0.554,-0.5644,-0.5667,-0.574,-0.5607,-0.5608,-0.561,0,-0.5613,-0.5614,-0.566,-0.5644,-0.5649,-0.5668,-0.567,-0.5681,-0.5675,-0.5663,-0.5665,-0.5638,-0.5661,-0.562,-0.5651,-0.5621,-0.5627,-0.5621,-0.5623,-0.5624,-0.5578,-0.5648,-0.5762,-0.5773,-0.5624,-0.5623,-0.5622,0,-0.5697,-0.5711,-0.574,-0.5739,-0.5722,-0.5736,-0.573,-0.5721,-0.5726,-0.5728,-0.5731,-0.5736,-0.5739,-0.5744,-0.572,-0.5692,-0.5754,-0.5711,-0.5746,-0.5747,-0.5762,-0.5761,-0.5879,-0.5765,-0.5765,-0.5764,-0.5764,0,-0.5786,-0.5815,-0.5777,-0.5795,-0.5827,-0.5794,-0.5827,-0.5816,-0.5809,-0.5824,-0.5788,-0.5804,-0.577,-0.5782,-0.5763,-0.5792,-0.5794,-0.5786,-0.5781,-0.5789,-0.5791,-0.5793,-0.5788,-0.5767,-0.5767,-0.5766,-0.5766,0,-0.5886,-0.5862,-0.589,-0.5871,-0.5867,-0.5891,-0.5875,-0.5891,-0.5875,-0.5895,-0.5898,-0.5873,-0.5885,-0.5861,-0.5871,-0.5858,-0.5899,-0.5885,-0.5901,-0.5897,-0.5934,-0.5931,-0.6058,-0.6073,-0.5949,-0.595,-0.5951,0,-0.5945,-0.5966,-0.5949,-0.5956,-0.5951,-0.5964,-0.5968,-0.5937,-0.5943,-0.5938,-0.5955,-0.5964,-0.5969,-0.5991,-0.5974,-0.5981,-0.5968,-0.6012,-0.5969,-0.5977,-0.5969,-0.5969,-0.5971,-0.6021,-0.6023,-0.6024,-0.6025,0,-0.6051,-0.6038,-0.6045,-0.6048,-0.6054,-0.6055,-0.6054,-0.6062,-0.603,-0.6038,-0.605,-0.6054,-0.6063,-0.6073,-0.6076,-0.607,-0.6043,-0.6038,-0.6047,-0.6056,-0.6065,-0.6061,-0.5925,-0.6036,-0.6035,-0.6034,-0.6033,-0.6033,-0.6132,-0.6149,-0.614,-0.6149,-0.6145,-0.6144,-0.6158,-0.6144,-0.6152,-0.6157,-0.6138,-0.6154,-0.6147,-0.6148,-0.6145,-0.6158,-0.6138,-0.6151,-0.6154,-0.6158,-0.6164,-0.6062,-0.6158,-0.6158,-0.6158,-0.6157,-0.6157,0,-0.6237,-0.6229,-0.6238,-0.6237,-0.6244,-0.6216,-0.6213,-0.6222,-0.6236,-0.6231,-0.6237,-0.6251,-0.626,-0.6244,-0.6251,-0.6264,-0.6251,-0.6267,-0.6266,-0.6265,-0.6181,-0.6173,-0.6277,-0.6277,-0.6277,-0.6277,-0.6277,-0.6276,-0.6293,-0.632,-0.6306,-0.6331,-0.6322,-0.6337,-0.6338,-0.6337,-0.6333,-0.635,-0.6357,-0.6346,-0.6337,-0.6343,-0.635,-0.6345,-0.635,-0.637,-0.636,-0.6282,-0.6271,-0.626,-0.6252,-0.6371,-0.6371,-0.6443,-0.6444,-0.6444]},{"header":{"parameterUnit":"m.s-1","parameterCategory":1,"la1":30.2991,"la2":30.254,"lo1":-89.0895,"lo2":-89.0444,"dy":0.0017,"dx":0.0017,"nx":28,"ny":28,"refTime":"2025-09-02T03:00:00:Z","depth":0,"parameterNumber":3,"parameterNumberName":"V-component_of_WINDS"},"data":[0,0,0,0,0,0,0,0,0,0,0,0,0,0,0,0,0,0,0,0,0,0,0,0,0,0,0,0,0,0,0,0,0,0,0,0,0,0,0,0,0,0,0,0,0,0,0,0,0,0,0,0,0,0,0,0,0,0,0.4449,0.4448,0,0.4406,0.4406,0.4405,0.4365,0.4365,0.4365,0.4364,0.4319,0.4318,0.4318,0,0,0,0,0,0,0,0,0,0,0,0,0,0.4495,0.4494,0.4449,0.4448,0.4448,0.4406,0.4406,0.4405,0.4366,0.4365,0.4364,0.4364,0.4319,0.4318,0.4318,0,0,0,0,0,0,0,0,0,0,0,0,0,0.4466,0.4494,0.4449,0.4423,0.442,0.4406,0.4406,0.4405,0.4366,0.4365,0.4364,0.4364,0.432,0.4319,0.4317,0.4325,0,0,0.4314,0.4314,0,0,0,0,0,0,0,0,0.4467,0.4464,0.4427,0.4425,0.4422,0.439,0.4405,0.4378,0.4366,0.4386,0.4364,0.4363,0.4343,0.434,0.4334,0.4323,0.4321,0.4314,0.4313,0.4313,0.4312,0,0,0,0,0,0,0,0.4469,0.4466,0.4432,0.4427,0.4424,0.4413,0.4408,0.44,0.4369,0.4385,0.4382,0.4377,0.4342,0.4335,0.4332,0.4321,0.4314,0.4313,0.4312,0.4312,0.4313,0.4313,0,0,0,0,0,0,0.4476,0.4468,0.4433,0.4431,0.4443,0.4413,0.4407,0.4401,0.4369,0.4364,0.4378,0.4375,0.4337,0.4334,0.4331,0.4337,0.4313,0.4312,0.4311,0.4312,0.4313,0.4314,0,0,0,0,0,0,0.4477,0.4473,0.4435,0.4448,0.4443,0.4413,0.4406,0.4401,0.4394,0.4364,0.4359,0.4377,0.4337,0.4332,0.4327,0.4335,0.4311,0.431,0.4311,0.4312,0.4313,0.435,0,0,0,0,0,0,0.4478,0.4474,0.4477,0.4449,0.4442,0.4432,0.4407,0.44,0.4392,0.4389,0.4362,0.4357,0.4336,0.4329,0.4326,0.4333,0.4309,0.431,0.4312,0.4313,0.4348,0.4352,0.4356,0,0,0,0,0,0.448,0.4489,0.4477,0.4473,0.4445,0.4433,0.4429,0.4405,0.4393,0.4396,0.4376,0.4357,0.4335,0.4328,0.4325,0.4332,0.431,0.4311,0.4313,0.4346,0.4351,0.4356,0,0,0,0,0,0,0.4518,0.4485,0.4471,0.4471,0.4455,0.4426,0.4429,0.4412,0.4398,0.4396,0.4366,0.436,0.4358,0.4344,0.4338,0.4337,0.4319,0.432,0.4346,0.4351,0.4355,0.4358,0.4308,0,0,0,0,0,0.4527,0.452,0.4491,0.4493,0.4486,0.4459,0.4453,0.4436,0.4418,0.4411,0.4391,0.4374,0.4363,0.4356,0.4344,0.4346,0.4339,0.4349,0.4353,0.4356,0.4357,0.4356,0.436,0.4319,0.4319,0.4319,0,0,0.4544,0.4525,0.4522,0.4501,0.4486,0.4479,0.4454,0.4447,0.4442,0.4409,0.4403,0.4388,0.4367,0.4365,0.4363,0.4353,0.4367,0.4358,0.4361,0.436,0.4358,0.4362,0.4365,0.432,0.432,0.432,0,0,0.4572,0.4557,0.4557,0.4543,0.4522,0.4504,0.4504,0.4477,0.4466,0.4459,0.4435,0.4427,0.4409,0.4395,0.4385,0.4407,0.4388,0.4404,0.4424,0.4424,0.4427,0.4429,0.4437,0.4439,0.4405,0.4405,0.4405,0,0.4596,0.4585,0.456,0.4555,0.4545,0.4516,0.4516,0.4503,0.4479,0.4473,0.4463,0.4439,0.4423,0.4416,0.4422,0.4415,0.4414,0.4407,0.4428,0.4431,0.4433,0.4439,0.4442,0.4407,0.4407,0.4407,0.4406,0,0.4615,0.4608,0.461,0.4588,0.4579,0.4577,0.455,0.4544,0.4528,0.451,0.4503,0.4483,0.4466,0.4463,0.4447,0.4454,0.4449,0.4434,0.4416,0.4439,0.4445,0.4447,0.441,0.4409,0.4408,0.4408,0,0,0.4666,0.4629,0.4631,0.462,0.4594,0.4587,0.4583,0.4567,0.4562,0.4546,0.4541,0.4526,0.4512,0.4501,0.4483,0.4482,0.45,0.4467,0.4466,0.4473,0.4505,0.4517,0.452,0.4487,0.4488,0.4488,0.4507,0,0.4689,0.468,0.4657,0.4655,0.4647,0.4619,0.4615,0.4599,0.4582,0.4573,0.4554,0.4544,0.4526,0.4519,0.4518,0.4498,0.4506,0.4496,0.4482,0.4482,0.4488,0.4523,0.4535,0.4554,0.4509,0.4509,0.451,0,0.4715,0.4701,0.4698,0.4672,0.4668,0.4665,0.4648,0.4639,0.4619,0.4607,0.4595,0.4575,0.4568,0.4552,0.4541,0.4535,0.4528,0.4517,0.4517,0.4515,0.4497,0.4521,0.4559,0.4562,0.4513,0.4513,0.4512,0,0.4752,0.4732,0.4728,0.4719,0.4688,0.4687,0.4674,0.4653,0.4645,0.463,0.4624,0.4608,0.4599,0.4587,0.4563,0.4553,0.4555,0.4536,0.4544,0.4545,0.4545,0.4546,0.4583,0.4542,0.4542,0.4542,0.4542,0,0.4779,0.4779,0.4743,0.4741,0.4739,0.4712,0.471,0.4695,0.4677,0.467,0.4644,0.4638,0.4607,0.4597,0.4578,0.4572,0.4569,0.4558,0.4553,0.456,0.4561,0.4555,0.4553,0.4542,0.4542,0.4542,0.4542,0,0.482,0.4796,0.479,0.4761,0.4754,0.4754,0.4729,0.4725,0.4707,0.4698,0.4695,0.4666,0.4653,0.4628,0.4608,0.4595,0.4593,0.4585,0.46,0.4597,0.4606,0.4605,0.4639,0.4642,0.46,0.46,0.4601,0,0.4839,0.4838,0.4809,0.4803,0.4791,0.4781,0.4772,0.4746,0.4737,0.4714,0.4713,0.4698,0.4684,0.4665,0.4642,0.4626,0.4617,0.463,0.4614,0.4621,0.4616,0.4616,0.4616,0.4633,0.4634,0.4634,0.4635,0,0.4875,0.4864,0.4852,0.4836,0.4826,0.4813,0.4797,0.4793,0.4763,0.4755,0.4741,0.4731,0.471,0.4696,0.4677,0.4662,0.4643,0.464,0.4641,0.4648,0.4656,0.4651,0.4609,0.4639,0.4639,0.4638,0.4638,0.4638,0.4905,0.4903,0.4882,0.4869,0.4855,0.4841,0.4836,0.4817,0.4806,0.4787,0.4772,0.4759,0.4738,0.4711,0.4698,0.4687,0.4678,0.468,0.468,0.468,0.4683,0.4659,0.4684,0.4684,0.4684,0.4683,0.4683,0,0.494,0.4925,0.4914,0.4893,0.4883,0.4866,0.4849,0.4841,0.4831,0.4813,0.4801,0.4785,0.477,0.4746,0.4729,0.4725,0.4716,0.4722,0.4722,0.4718,0.4693,0.4693,0.473,0.473,0.473,0.473,0.473,0.473,0.4956,0.4951,0.4936,0.4923,0.4908,0.4896,0.4887,0.4874,0.4859,0.4843,0.4831,0.4815,0.4795,0.4776,0.4762,0.4755,0.475,0.4758,0.4749,0.4725,0.472,0.4716,0.4717,0.4757,0.4757,0.4775,0.4775,0.4775]}]]